TimeEDT,TemperatureF,Dew PointF,Humidity,Sea Level PressureIn,VisibilityMPH,Wind Direction,Wind SpeedMPH,Gust SpeedMPH,PrecipitationIn,Events,Conditions,WindDirDegrees,DateUTC
12:15 AM,47.3,45.0,92,30.12,10.0,NNW,10.4,16.1,N/A,,Overcast,330,2013-09-13 04:15:00
12:34 AM,46.8,44.6,92,30.12,10.0,NW,6.9,-,N/A,,Overcast,320,2013-09-13 04:34:00
12:55 AM,47.3,44.4,90,30.12,10.0,NNW,9.2,-,N/A,,Overcast,340,2013-09-13 04:55:00
1:15 AM,47.5,43.3,86,30.12,10.0,NNW,10.4,-,N/A,,Overcast,340,2013-09-13 05:15:00
1:35 AM,47.5,42.8,84,30.13,10.0,North,9.2,-,N/A,,Overcast,350,2013-09-13 05:35:00
1:55 AM,46.6,43.9,90,30.14,10.0,North,4.6,-,N/A,,Overcast,360,2013-09-13 05:55:00
2:15 AM,46.6,43.7,90,30.14,10.0,NNW,5.8,-,N/A,,Overcast,340,2013-09-13 06:15:00
2:35 AM,46.6,43.2,88,30.14,10.0,NNW,5.8,-,N/A,,Overcast,330,2013-09-13 06:35:00
2:55 AM,46.6,42.3,85,30.14,10.0,North,10.4,-,N/A,,Overcast,350,2013-09-13 06:55:00
3:15 AM,45.5,42.1,88,30.14,10.0,NNW,6.9,-,N/A,,Overcast,340,2013-09-13 07:15:00
3:35 AM,45.9,41.9,86,30.14,10.0,NNW,6.9,-,N/A,,Overcast,340,2013-09-13 07:35:00
3:55 AM,45.9,41.0,83,30.14,10.0,NNW,5.8,-,N/A,,Overcast,340,2013-09-13 07:55:00
4:14 AM,46.0,41.0,83,30.15,10.0,North,6.9,-,N/A,,Overcast,350,2013-09-13 08:14:00
4:35 AM,46.0,40.6,81,30.15,10.0,North,5.8,-,N/A,,Overcast,350,2013-09-13 08:35:00
4:55 AM,45.5,41.2,85,30.15,10.0,NNW,5.8,-,N/A,,Overcast,340,2013-09-13 08:55:00
5:15 AM,45.5,41.2,85,30.15,10.0,NNW,4.6,-,N/A,,Overcast,330,2013-09-13 09:15:00
5:35 AM,45.1,41.2,86,30.16,10.0,NNW,4.6,-,N/A,,Overcast,340,2013-09-13 09:35:00
5:55 AM,45.0,40.5,84,30.17,10.0,North,4.6,-,N/A,,Overcast,350,2013-09-13 09:55:00
6:15 AM,44.1,40.5,87,30.17,10.0,NNW,3.5,-,N/A,,Overcast,340,2013-09-13 10:15:00
6:35 AM,42.8,39.4,88,30.17,10.0,NNW,3.5,-,N/A,,Mostly Cloudy,340,2013-09-13 10:35:00
6:55 AM,41.4,38.3,89,30.18,10.0,NNW,4.6,-,N/A,,Scattered Clouds,340,2013-09-13 10:55:00
7:15 AM,42.1,37.8,85,30.18,10.0,NNW,5.8,-,N/A,,Mostly Cloudy,340,2013-09-13 11:15:00
7:35 AM,43.3,37.2,79,30.18,10.0,North,8.1,-,N/A,,Overcast,350,2013-09-13 11:35:00
7:54 AM,43.5,37.0,78,30.19,10.0,North,6.9,-,N/A,,Mostly Cloudy,350,2013-09-13 11:54:00
8:15 AM,45.3,37.6,74,30.20,10.0,North,6.9,-,N/A,,Overcast,350,2013-09-13 12:15:00
8:35 AM,46.2,37.9,73,30.20,10.0,North,6.9,-,N/A,,Overcast,360,2013-09-13 12:35:00
8:55 AM,46.9,38.3,72,30.20,10.0,North,10.4,-,N/A,,Overcast,360,2013-09-13 12:55:00
9:15 AM,47.7,38.5,70,30.20,10.0,North,16.1,-,N/A,,Overcast,360,2013-09-13 13:15:00
9:35 AM,48.6,38.3,68,30.19,10.0,North,15.0,21.9,N/A,,Mostly Cloudy,360,2013-09-13 13:35:00
9:55 AM,49.3,37.8,65,30.19,10.0,North,12.7,18.4,N/A,,Mostly Cloudy,10,2013-09-13 13:55:00
10:15 AM,49.8,37.8,63,30.20,10.0,North,12.7,17.3,N/A,,Scattered Clouds,360,2013-09-13 14:15:00
10:35 AM,50.4,37.9,62,30.20,10.0,North,11.5,21.9,N/A,,Clear,360,2013-09-13 14:35:00
10:55 AM,51.3,38.5,62,30.20,10.0,NNW,11.5,17.3,N/A,,Scattered Clouds,340,2013-09-13 14:55:00
11:15 AM,52.2,38.7,60,30.21,10.0,North,15.0,21.9,N/A,,Scattered Clouds,360,2013-09-13 15:15:00
11:35 AM,53.2,37.8,56,30.20,10.0,North,13.8,20.7,N/A,,Clear,10,2013-09-13 15:35:00
11:55 AM,54.0,39.0,57,30.20,10.0,NNW,13.8,19.6,N/A,,Clear,340,2013-09-13 15:55:00
12:15 PM,54.1,38.3,55,30.20,10.0,North,9.2,-,N/A,,Clear,360,2013-09-13 16:15:00
12:35 PM,54.5,38.5,55,30.20,10.0,NNW,15.0,19.6,N/A,,Clear,330,2013-09-13 16:35:00
12:55 PM,55.0,37.9,53,30.20,10.0,North,13.8,18.4,N/A,,Clear,360,2013-09-13 16:55:00
1:15 PM,55.4,37.4,51,30.20,10.0,North,16.1,20.7,N/A,,Clear,350,2013-09-13 17:15:00
1:35 PM,57.0,37.9,49,30.20,10.0,North,13.8,17.3,N/A,,Clear,360,2013-09-13 17:35:00
1:55 PM,57.0,37.0,47,30.19,10.0,North,12.7,18.4,N/A,,Clear,10,2013-09-13 17:55:00
2:15 PM,57.4,35.4,44,30.19,10.0,NNW,9.2,16.1,N/A,,Clear,330,2013-09-13 18:15:00
2:35 PM,57.7,35.2,43,30.19,10.0,NW,8.1,18.4,N/A,,Clear,310,2013-09-13 18:35:00
2:55 PM,57.9,33.8,40,30.18,10.0,North,8.1,20.7,N/A,,Clear,360,2013-09-13 18:55:00
3:15 PM,58.6,34.9,41,30.18,10.0,North,10.4,17.3,N/A,,Clear,10,2013-09-13 19:15:00
3:35 PM,58.8,34.5,40,30.18,10.0,NNW,12.7,18.4,N/A,,Clear,340,2013-09-13 19:35:00
3:55 PM,59.5,35.8,41,30.17,10.0,North,11.5,17.3,N/A,,Clear,10,2013-09-13 19:55:00
4:15 PM,58.1,33.8,40,30.17,10.0,NNW,9.2,17.3,N/A,,Clear,340,2013-09-13 20:15:00
4:34 PM,58.5,36.3,44,30.17,10.0,North,6.9,-,N/A,,Clear,360,2013-09-13 20:34:00
4:55 PM,58.6,37.8,46,30.16,10.0,NW,8.1,-,N/A,,Clear,320,2013-09-13 20:55:00
5:15 PM,57.7,37.2,46,30.16,10.0,NNW,9.2,-,N/A,,Clear,330,2013-09-13 21:15:00
5:35 PM,57.4,36.7,46,30.16,10.0,North,8.1,-,N/A,,Clear,360,2013-09-13 21:35:00
5:55 PM,57.0,37.9,49,30.17,10.0,NNW,8.1,-,N/A,,Clear,330,2013-09-13 21:55:00
6:15 PM,56.3,38.5,51,30.17,10.0,North,5.8,-,N/A,,Clear,360,2013-09-13 22:15:00
6:35 PM,55.6,38.5,53,30.17,10.0,North,9.2,-,N/A,,Clear,350,2013-09-13 22:35:00
6:55 PM,54.5,39.0,56,30.17,10.0,NNW,9.2,-,N/A,,Clear,330,2013-09-13 22:55:00
7:15 PM,53.6,39.9,60,30.17,10.0,NNW,8.1,-,N/A,,Clear,340,2013-09-13 23:15:00
7:35 PM,51.8,40.1,64,30.16,10.0,North,5.8,-,N/A,,Clear,350,2013-09-13 23:35:00
7:55 PM,48.9,40.5,73,30.16,10.0,NNW,4.6,-,N/A,,Clear,330,2013-09-13 23:55:00
8:15 PM,47.3,40.6,78,30.16,10.0,NNW,3.5,-,N/A,,Clear,330,2013-09-14 00:15:00
8:35 PM,46.2,40.6,81,30.17,10.0,NW,4.6,-,N/A,,Clear,320,2013-09-14 00:35:00
8:55 PM,44.2,40.5,87,30.17,10.0,Calm,Calm,-,N/A,,Clear,0,2013-09-14 00:55:00
9:15 PM,41.2,39.0,92,30.17,10.0,NW,4.6,-,N/A,,Clear,320,2013-09-14 01:15:00
9:35 PM,41.4,39.4,93,30.16,10.0,Calm,Calm,-,N/A,,Clear,0,2013-09-14 01:35:00
9:55 PM,41.5,39.2,91,30.16,10.0,Calm,Calm,-,N/A,,Clear,0,2013-09-14 01:55:00
10:15 PM,38.8,37.6,95,30.15,10.0,North,4.6,-,N/A,,Clear,360,2013-09-14 02:15:00
10:35 PM,40.1,38.7,95,30.15,10.0,North,4.6,-,N/A,,Clear,360,2013-09-14 02:35:00
10:55 PM,40.3,38.1,92,30.14,10.0,Calm,Calm,-,N/A,,Clear,0,2013-09-14 02:55:00
11:15 PM,40.3,39.0,95,30.14,10.0,Calm,Calm,-,N/A,,Clear,0,2013-09-14 03:15:00
11:35 PM,39.7,37.8,93,30.14,10.0,Calm,Calm,-,N/A,,Clear,0,2013-09-14 03:35:00
11:55 PM,38.3,36.9,95,30.14,10.0,Calm,Calm,-,N/A,,Clear,0,2013-09-14 03:55:00